Key West, FL

12:34 PM EST on February 23, 2017 (GMT -0500)
Key West International

Weather History for KEYW - August, 2013

Change the Weather History Date:

Saturday, August 31, 2013

  Actual Average Record
Temperature  
Mean Temperature 84 °F 84 °F  
Max Temperature 87 °F 89 °F 94 °F (1956)
Min Temperature 80 °F 79 °F 71 °F (1916)
Degree Days  
Heating Degree Days 0 0  
Month to date heating degree days 0 0  
Since 1 June heating degree days 0 0  
Since 1 July heating degree days 0 0  
Cooling Degree Days 19 19  
Month to date cooling degree days 577 604  
Year to date cooling degree days 3320 3189  
Since 1 June cooling degree days 1691 1759  
Growing Degree Days 34 (Base 50)    
Moisture  
Dew Point 74 °F    
Average Humidity 72    
Maximum Humidity 79    
Minimum Humidity 65    
Precipitation  
Precipitation T in 0.20 in 1.54 in (1872)
Month to date precipitation 4.38 5.38  
Year to date precipitation 35.51 23.67  
Snow  
Snow 0.00 in - - ()
Month to date snowfall 0.0  
Since 1 June snowfall 0.0  
Since 1 July snowfall 0.0  
Snow Depth 0.00 in    
Sea Level Pressure  
Sea Level Pressure 29.96 in    
Wind  
Wind Speed 6 mph (SE)    
Max Wind Speed 17 mph    
Max Gust Speed 24 mph    
Visibility 10 miles    
Events      
T = Trace of Precipitation, MM = Missing Value Source: NWS Daily Summary

Daily Weather History Graph

Daily Weather History Graph

Search for Another Location

Airport or City:

Trip Planner

Search our weather history database for the weather conditions in past years. The results will help you decide how hot, cold, wet, or windy it might be!

Date:

Astronomy

Aug. 31, 2013 Rise Set
Actual Time 7:07 AM EDT 7:46 PM EDT
Civil Twilight 6:44 AM EDT 8:09 PM EDT
Nautical Twilight 6:17 AM EDT 8:36 PM EDT
Astronomical Twilight 5:50 AM EDT 9:03 PM EDT
Moon 2:53 AM EDT (8/31) 4:27 PM EDT (8/31)
Length of Visible Light 13h 24m
Length of Day
12h 38m
Waning Crescent, 21% of the Moon is Illuminated
Aug 31
Waning Crescent
Sep 5
New
Sep 12
First Quarter
Sep 19
Full
Sep 26
Last Quarter

Hourly Weather History & Observations

Time (EDT) Temp. Heat Index Dew Point Humidity Pressure Visibility Wind Dir Wind Speed Gust Speed Precip Events Conditions
12:53 AM 82.9 °F 88.8 °F 73.0 °F 72% 29.96 in 10.0 mi South 3.5 mph - N/A   Clear
1:53 AM 82.0 °F 87.4 °F 73.0 °F 74% 29.96 in 10.0 mi Calm Calm - N/A   Clear
2:53 AM 81.0 °F 86.2 °F 73.9 °F 79% 29.95 in 10.0 mi SE 3.5 mph - N/A   Clear
3:53 AM 82.0 °F 86.7 °F 72.0 °F 71% 29.94 in 10.0 mi South 4.6 mph - N/A   Partly Cloudy
4:53 AM 81.0 °F 85.8 °F 73.0 °F 77% 29.93 in 10.0 mi SSE 4.6 mph - N/A   Clear
5:53 AM 81.0 °F 85.2 °F 72.0 °F 74% 29.92 in 10.0 mi SSE 4.6 mph - N/A   Clear
6:53 AM 80.1 °F 83.8 °F 72.0 °F 76% 29.94 in 10.0 mi Calm Calm - N/A   Clear
7:53 AM 82.0 °F 88.6 °F 75.0 °F 79% 29.95 in 10.0 mi ENE 3.5 mph - N/A   Clear
8:53 AM 82.9 °F 90.2 °F 75.0 °F 77% 29.97 in 10.0 mi ESE 8.1 mph - N/A   Partly Cloudy
9:53 AM 82.0 °F 87.9 °F 73.9 °F 76% 30.00 in 10.0 mi SE 16.1 mph 20.7 mph N/A   Mostly Cloudy
10:53 AM 80.1 °F 84.2 °F 73.0 °F 79% 29.99 in 10.0 mi South 4.6 mph - 0.00 in   Partly Cloudy
11:53 AM 84.0 °F 89.0 °F 71.1 °F 65% 30.00 in 10.0 mi SSW 5.8 mph - N/A   Clear
12:53 PM 84.9 °F 90.7 °F 72.0 °F 65% 29.99 in 10.0 mi South 6.9 mph - N/A   Clear
1:53 PM 86.0 °F 93.0 °F 73.0 °F 65% 29.98 in 10.0 mi South 5.8 mph - N/A   Clear
2:53 PM 84.9 °F 92.1 °F 73.9 °F 69% 29.96 in 10.0 mi SSE 5.8 mph - N/A   Clear
3:53 PM 86.0 °F 96.0 °F 75.9 °F 72% 29.94 in 10.0 mi SE 5.8 mph - N/A   Clear
4:53 PM 86.0 °F 96.9 °F 77.0 °F 74% 29.93 in 10.0 mi ESE 6.9 mph - N/A   Partly Cloudy
5:53 PM 84.9 °F 94.1 °F 75.9 °F 74% 29.94 in 10.0 mi ESE 9.2 mph - N/A   Partly Cloudy
6:53 PM 84.0 °F 91.2 °F 73.9 °F 72% 29.94 in 10.0 mi North 4.6 mph - N/A   Scattered Clouds
7:53 PM 82.9 °F 88.8 °F 73.0 °F 72% 29.95 in 10.0 mi North 3.5 mph - N/A   Clear
8:53 PM 82.9 °F 89.4 °F 73.9 °F 74% 29.96 in 10.0 mi East 8.1 mph - N/A   Clear
9:53 PM 82.9 °F 90.2 °F 75.0 °F 77% 29.99 in 10.0 mi ESE 12.7 mph - N/A   Clear
10:53 PM 84.0 °F 92.6 °F 75.9 °F 76% 29.97 in 10.0 mi SE 8.1 mph - N/A   Scattered Clouds
11:53 PM 84.0 °F 91.9 °F 75.0 °F 74% 29.98 in 10.0 mi SSE 9.2 mph - N/A   Clear